Benton Harbor, MI

8:48 PM EST on December 17, 2017 (GMT -0500)
Southwest Michigan Regional

Weather History for KBEH - April, 2013

Change the Weather History Date:

Saturday, April 20, 2013

  Actual Average Record
Temperature  
Mean Temperature 34 °F -  
Max Temperature 39 °F 61 °F 84 °F (1985)
Min Temperature 28 °F 41 °F 22 °F (1951)
Degree Days  
Heating Degree Days 30    
Moisture  
Dew Point 20 °F    
Average Humidity 56    
Maximum Humidity 78    
Minimum Humidity 36    
Precipitation  
Precipitation 0.00 in - - ()
Sea Level Pressure  
Sea Level Pressure 30.20 in    
Wind  
Wind Speed 11 mph (NW)    
Max Wind Speed 18 mph    
Max Gust Speed 30 mph    
Visibility 10 miles    
Events Snow    
Averages and records for this station are not official NWS values.
T = Trace of Precipitation, MM = Missing Value Source: NWS Daily Summary

Daily Weather History Graph

Daily Weather History Graph

Search for Another Location

Airport or City:

Trip Planner

Search our weather history database for the weather conditions in past years. The results will help you decide how hot, cold, wet, or windy it might be!

Date:

Astronomy

Apr. 20, 2013 Rise Set
Actual Time 6:56 AM EDT 8:32 PM EDT
Civil Twilight 6:27 AM EDT 9:02 PM EDT
Nautical Twilight 5:51 AM EDT 9:38 PM EDT
Astronomical Twilight 5:13 AM EDT 10:16 PM EDT
Moon 3:10 PM EDT (4/20) 3:51 AM EDT (4/20)
Length of Visible Light 14h 35m
Length of Day
13h 36m
Waxing Gibbous, 71% of the Moon is Illuminated
Apr 20
Waxing Gibbous
Apr 25
Full
May 2
Last Quarter
May 9
New
May 18
First Quarter

Hourly Weather History & Observations

Time (EDT) Temp. Windchill Dew Point Humidity Pressure Visibility Wind Dir Wind Speed Gust Speed Precip Events Conditions
12:53 AM 37.0 °F 27.0 °F 26.1 °F 65% 29.88 in 10.0 mi West 18.4 mph 25.3 mph N/A   Overcast
1:53 AM 33.1 °F 23.9 °F 27.0 °F 78% 29.91 in 5.0 mi NW 12.7 mph 23.0 mph 0.00 in Snow Light Snow
2:06 AM 33.8 °F 24.8 °F 26.6 °F 75% 29.89 in 9.0 mi WNW 12.7 mph 21.9 mph 0.00 in   Overcast
2:53 AM 35.1 °F 25.5 °F 24.1 °F 64% 29.93 in 10.0 mi WNW 15.0 mph 21.9 mph 0.00 in   Overcast
3:53 AM 34.0 °F 23.8 °F 19.9 °F 56% 29.96 in 10.0 mi WNW 16.1 mph 29.9 mph N/A   Overcast
4:53 AM 33.1 °F 24.4 °F 19.9 °F 59% 30.00 in 10.0 mi WNW 11.5 mph 20.7 mph N/A   Scattered Clouds
5:53 AM 33.1 °F 23.4 °F 19.0 °F 56% 30.02 in 10.0 mi NW 13.8 mph 23.0 mph N/A   Mostly Cloudy
6:53 AM 32.0 °F 24.2 °F 18.0 °F 56% 30.06 in 10.0 mi NW 9.2 mph 18.4 mph N/A   Scattered Clouds
7:53 AM 33.1 °F 23.9 °F 19.9 °F 59% 30.10 in 10.0 mi NW 12.7 mph 21.9 mph N/A   Overcast
8:53 AM 33.1 °F 26.9 °F 19.9 °F 59% 30.14 in 10.0 mi WNW 6.9 mph 16.1 mph N/A   Overcast
9:53 AM 33.1 °F 23.9 °F 19.0 °F 56% 30.19 in 10.0 mi WNW 12.7 mph 19.6 mph N/A   Overcast
10:53 AM 35.1 °F 27.9 °F 19.0 °F 52% 30.22 in 10.0 mi NW 9.2 mph 19.6 mph N/A   Scattered Clouds
11:53 AM 37.0 °F 28.9 °F 21.9 °F 54% 30.25 in 10.0 mi WNW 12.7 mph 19.6 mph N/A   Mostly Cloudy
12:53 PM 36.0 °F 28.0 °F 19.9 °F 52% 30.27 in 10.0 mi WNW 11.5 mph 18.4 mph N/A   Mostly Cloudy
1:53 PM 37.9 °F 30.5 °F 21.9 °F 53% 30.30 in 10.0 mi NW 11.5 mph 19.6 mph N/A   Mostly Cloudy
2:53 PM 37.0 °F 31.0 °F 21.9 °F 54% 30.32 in 10.0 mi WNW 8.1 mph - N/A   Scattered Clouds
3:53 PM 37.9 °F 32.1 °F 21.9 °F 53% 30.34 in 10.0 mi NW 8.1 mph - N/A   Partly Cloudy
4:53 PM 37.9 °F 32.7 °F 21.0 °F 51% 30.36 in 10.0 mi NW 6.9 mph - N/A   Clear
5:53 PM 37.9 °F 34.4 °F 18.0 °F 45% 30.37 in 10.0 mi Variable 4.6 mph - N/A   Clear
6:53 PM 39.0 °F 35.7 °F 14.0 °F 36% 30.37 in 10.0 mi North 4.6 mph - N/A   Clear
7:53 PM 37.9 °F 35.5 °F 14.0 °F 38% 30.38 in 10.0 mi NNE 3.5 mph - N/A   Clear
8:53 PM 35.1 °F - 15.1 °F 44% 30.40 in 10.0 mi Calm Calm - N/A   Clear
9:53 PM 30.9 °F - 18.0 °F 59% 30.43 in 10.0 mi Calm Calm - N/A   Clear
10:53 PM 30.0 °F - 19.0 °F 64% 30.45 in 10.0 mi Calm Calm - N/A   Clear
11:53 PM 28.9 °F - 19.0 °F 67% 30.47 in 10.0 mi Calm Calm - N/A   Clear